[[{"header":{"parameterUnit":"m.s-1","parameterCategory":1,"la1":30.2991,"la2":30.254,"lo1":-89.0895,"lo2":-89.0444,"dy":0.0017,"dx":0.0017,"nx":28,"ny":28,"refTime":"2025-04-29T03:00:00:Z","depth":0,"parameterNumber":2,"parameterNumberName":"U-component_of_WINDS"},"data":[0,0,0,0,0,0,0,0,0,0,0,0,0,0,0,0,0,0,0,0,0,0,0,0,0,0,0,0,0,0,0,0,0,0,0,0,0,0,0,0,0,0,0,0,0,0,0,0,0,0,0,0,0,0,0,0,0,0,-1.3125,-1.3126,0,-1.3216,-1.3217,-1.3218,-1.3234,-1.3233,-1.3232,-1.3232,-1.3327,-1.333,-1.3333,0,0,0,0,0,0,0,0,0,0,0,0,0,-1.2969,-1.2972,-1.3125,-1.3126,-1.3127,-1.3216,-1.3217,-1.3218,-1.3234,-1.3233,-1.3232,-1.3231,-1.3326,-1.3329,-1.3333,0,0,0,0,0,0,0,0,0,0,0,0,0,-1.3046,-1.2973,-1.3125,-1.3146,-1.3149,-1.3215,-1.3217,-1.3218,-1.3234,-1.3233,-1.3232,-1.3231,-1.3324,-1.3329,-1.3334,-1.3387,0,0,-1.3349,-1.3351,0,0,0,0,0,0,0,0,-1.3042,-1.3052,-1.3142,-1.3145,-1.3148,-1.3212,-1.3197,-1.3275,-1.3234,-1.3202,-1.3232,-1.323,-1.329,-1.3297,-1.3317,-1.3391,-1.3395,-1.3349,-1.3352,-1.3354,-1.3356,0,0,0,0,0,0,0,-1.3036,-1.3048,-1.3161,-1.3143,-1.3147,-1.3152,-1.3161,-1.3212,-1.3251,-1.3205,-1.3206,-1.3216,-1.3291,-1.3312,-1.3319,-1.3397,-1.3349,-1.3353,-1.3356,-1.3358,-1.3519,-1.3521,0,0,0,0,0,0,-1.3027,-1.3043,-1.3158,-1.3164,-1.3091,-1.3156,-1.3166,-1.3193,-1.3251,-1.3258,-1.3217,-1.3217,-1.3304,-1.3314,-1.3323,-1.3389,-1.3354,-1.3359,-1.3361,-1.3518,-1.352,-1.3521,0,0,0,0,0,0,-1.3023,-1.3037,-1.3155,-1.3104,-1.3119,-1.3159,-1.3189,-1.3195,-1.3216,-1.326,-1.3268,-1.3231,-1.3304,-1.3316,-1.3371,-1.3392,-1.3361,-1.3365,-1.3516,-1.3519,-1.352,-1.3521,0,0,0,0,0,0,-1.3019,-1.3036,-1.3055,-1.3104,-1.3122,-1.32,-1.319,-1.3198,-1.3224,-1.3224,-1.3275,-1.3283,-1.3304,-1.3363,-1.3375,-1.3398,-1.3369,-1.3515,-1.3517,-1.352,-1.3519,-1.3523,-1.3526,0,0,0,0,0,-1.3013,-1.3052,-1.3056,-1.307,-1.3147,-1.3201,-1.3212,-1.3235,-1.3226,-1.3247,-1.3275,-1.3281,-1.3388,-1.3369,-1.3383,-1.3407,-1.3513,-1.3517,-1.352,-1.3518,-1.3522,-1.3526,0,0,0,0,0,0,-1.3006,-1.3059,-1.3064,-1.312,-1.3156,-1.3204,-1.3231,-1.3239,-1.3278,-1.3277,-1.3305,-1.3316,-1.337,-1.3394,-1.3372,-1.3462,-1.345,-1.3456,-1.3444,-1.3448,-1.3451,-1.3445,-1.3373,0,0,0,0,0,-1.301,-1.3049,-1.3094,-1.3139,-1.3157,-1.319,-1.3215,-1.3229,-1.3268,-1.3284,-1.3316,-1.3354,-1.3396,-1.3424,-1.3465,-1.3523,-1.3534,-1.3546,-1.355,-1.3552,-1.3557,-1.359,-1.3596,-1.3531,-1.3531,-1.3531,0,0,-1.3021,-1.3055,-1.3077,-1.3138,-1.3168,-1.3208,-1.3203,-1.3246,-1.3276,-1.3291,-1.3344,-1.3369,-1.3414,-1.347,-1.3497,-1.3492,-1.3578,-1.3556,-1.3558,-1.3562,-1.3594,-1.36,-1.3605,-1.3533,-1.3533,-1.3533,0,0,-1.306,-1.3089,-1.313,-1.316,-1.3205,-1.3227,-1.3237,-1.3284,-1.3301,-1.3355,-1.3366,-1.3403,-1.3475,-1.3507,-1.3532,-1.3583,-1.3591,-1.3596,-1.3614,-1.3645,-1.3651,-1.3655,-1.3674,-1.3681,-1.3601,-1.3601,-1.3601,0,-1.3068,-1.3128,-1.3151,-1.3193,-1.322,-1.3234,-1.3276,-1.3304,-1.336,-1.3378,-1.3372,-1.3463,-1.3494,-1.3558,-1.3571,-1.3591,-1.3603,-1.3591,-1.3648,-1.3653,-1.3657,-1.3676,-1.3683,-1.3601,-1.3601,-1.3601,-1.3601,0,-1.3135,-1.3177,-1.3205,-1.3258,-1.3288,-1.333,-1.3359,-1.3387,-1.3399,-1.3422,-1.3478,-1.3515,-1.3564,-1.3581,-1.3593,-1.3647,-1.3643,-1.3642,-1.3631,-1.3664,-1.3681,-1.3689,-1.3602,-1.3602,-1.3602,-1.3602,0,0,-1.3173,-1.3238,-1.3248,-1.3272,-1.3322,-1.3355,-1.3398,-1.3446,-1.3469,-1.3507,-1.3545,-1.3605,-1.3605,-1.3633,-1.365,-1.3677,-1.3717,-1.3673,-1.3675,-1.368,-1.3779,-1.378,-1.3787,-1.3721,-1.3723,-1.3724,-1.3775,0,-1.3219,-1.3295,-1.3317,-1.3381,-1.342,-1.3434,-1.3472,-1.3507,-1.353,-1.3567,-1.3593,-1.3636,-1.3631,-1.3649,-1.3677,-1.3706,-1.3737,-1.3702,-1.3757,-1.3759,-1.3746,-1.3797,-1.3798,-1.3844,-1.3782,-1.3784,-1.3785,0,-1.3283,-1.3322,-1.339,-1.3435,-1.3452,-1.3485,-1.3531,-1.3566,-1.3607,-1.3621,-1.3653,-1.3667,-1.3713,-1.3699,-1.3764,-1.374,-1.3764,-1.3782,-1.3784,-1.379,-1.3774,-1.3805,-1.386,-1.3867,-1.3796,-1.3795,-1.3794,0,-1.3305,-1.3374,-1.3423,-1.3444,-1.3498,-1.3521,-1.3544,-1.3584,-1.3611,-1.3651,-1.3669,-1.3714,-1.3739,-1.3774,-1.38,-1.3787,-1.3863,-1.3851,-1.3877,-1.3876,-1.3893,-1.3891,-1.3953,-1.3907,-1.3907,-1.3907,-1.3907,0,-1.3354,-1.3395,-1.3434,-1.3464,-1.3511,-1.3536,-1.3582,-1.3607,-1.3642,-1.3678,-1.3693,-1.3727,-1.3759,-1.3798,-1.3818,-1.3869,-1.388,-1.3894,-1.3899,-1.3893,-1.3891,-1.3909,-1.3907,-1.3909,-1.3908,-1.3908,-1.3908,0,-1.3386,-1.3413,-1.3469,-1.3515,-1.3527,-1.356,-1.36,-1.3631,-1.3654,-1.37,-1.3712,-1.3749,-1.3795,-1.3825,-1.3884,-1.3897,-1.3953,-1.3957,-1.3939,-1.3942,-1.3967,-1.3964,-1.4042,-1.4054,-1.4,-1.4,-1.4001,0,-1.3416,-1.3448,-1.3498,-1.3523,-1.3546,-1.3586,-1.3614,-1.364,-1.3668,-1.3717,-1.3742,-1.3789,-1.3828,-1.3901,-1.3934,-1.3979,-1.3985,-1.4009,-1.3992,-1.3985,-1.3986,-1.3984,-1.3987,-1.4012,-1.4012,-1.4013,-1.4013,0,-1.3467,-1.3479,-1.3518,-1.3561,-1.3593,-1.3629,-1.3665,-1.3684,-1.3717,-1.3748,-1.3795,-1.3825,-1.3885,-1.3931,-1.3979,-1.4005,-1.4015,-1.4018,-1.4027,-1.4021,-1.401,-1.4017,-1.3948,-1.4016,-1.4016,-1.4016,-1.4015,-1.4015,-1.35,-1.3529,-1.3568,-1.3611,-1.364,-1.3673,-1.3704,-1.3731,-1.377,-1.382,-1.3833,-1.3883,-1.3923,-1.3989,-1.4015,-1.4055,-1.4052,-1.4064,-1.4067,-1.407,-1.4071,-1.4002,-1.4064,-1.4064,-1.4063,-1.4063,-1.4063,0,-1.3552,-1.3578,-1.3617,-1.3666,-1.3699,-1.3704,-1.3744,-1.3772,-1.3815,-1.3851,-1.3889,-1.3943,-1.3989,-1.4025,-1.4071,-1.4096,-1.4102,-1.4108,-1.4107,-1.4113,-1.4071,-1.4059,-1.4102,-1.4102,-1.4102,-1.4102,-1.4102,-1.4102,-1.3584,-1.3633,-1.3649,-1.3714,-1.374,-1.3787,-1.381,-1.384,-1.387,-1.3929,-1.3966,-1.3989,-1.4026,-1.4075,-1.4117,-1.4127,-1.4144,-1.4149,-1.4159,-1.412,-1.4115,-1.4111,-1.41,-1.4152,-1.4152,-1.4198,-1.4199,-1.4199]},{"header":{"parameterUnit":"m.s-1","parameterCategory":1,"la1":30.2991,"la2":30.254,"lo1":-89.0895,"lo2":-89.0444,"dy":0.0017,"dx":0.0017,"nx":28,"ny":28,"refTime":"2025-04-29T03:00:00:Z","depth":0,"parameterNumber":3,"parameterNumberName":"V-component_of_WINDS"},"data":[0,0,0,0,0,0,0,0,0,0,0,0,0,0,0,0,0,0,0,0,0,0,0,0,0,0,0,0,0,0,0,0,0,0,0,0,0,0,0,0,0,0,0,0,0,0,0,0,0,0,0,0,0,0,0,0,0,0,5.2418,5.2419,0,5.2468,5.2469,5.2469,5.2406,5.2404,5.2402,5.2399,5.2445,5.2448,5.2452,0,0,0,0,0,0,0,0,0,0,0,0,0,5.2263,5.2266,5.2418,5.2419,5.242,5.2468,5.2469,5.2469,5.2407,5.2404,5.2401,5.2398,5.2444,5.2448,5.2452,0,0,0,0,0,0,0,0,0,0,0,0,0,5.2323,5.2267,5.2418,5.2394,5.2393,5.2468,5.2469,5.2469,5.2407,5.2404,5.24,5.2397,5.2443,5.2448,5.2452,5.2552,0,0,5.2468,5.247,0,0,0,0,0,0,0,0,5.232,5.2329,5.2397,5.2396,5.2394,5.2427,5.243,5.2497,5.2408,5.2401,5.2399,5.2395,5.2442,5.2447,5.2463,5.2554,5.2556,5.2468,5.2471,5.2473,5.2475,0,0,0,0,0,0,0,5.2316,5.2326,5.2438,5.2398,5.2396,5.2379,5.2384,5.2443,5.244,5.2402,5.2397,5.2404,5.244,5.2459,5.2464,5.2557,5.2468,5.2473,5.2476,5.2478,5.2729,5.2733,0,0,0,0,0,0,5.2315,5.2323,5.2436,5.2439,5.2348,5.2384,5.239,5.242,5.2439,5.2439,5.2407,5.2401,5.2452,5.2458,5.2465,5.2581,5.2473,5.2478,5.2481,5.2725,5.273,5.2734,0,0,0,0,0,0,5.2312,5.2326,5.2434,5.238,5.2393,5.2391,5.2425,5.2423,5.2441,5.2443,5.2442,5.2427,5.2449,5.2458,5.2531,5.2581,5.248,5.2485,5.2721,5.2727,5.2732,5.2814,0,0,0,0,0,0,5.2308,5.2325,5.2364,5.2382,5.2396,5.2501,5.2429,5.2426,5.2451,5.2443,5.2461,5.2461,5.2447,5.2524,5.2536,5.2587,5.2489,5.2716,5.2724,5.273,5.2807,5.2822,5.2835,0,0,0,0,0,5.2302,5.2385,5.2367,5.2381,5.2445,5.2504,5.2512,5.2496,5.2455,5.2493,5.2494,5.246,5.2575,5.2532,5.2545,5.2598,5.2713,5.2722,5.273,5.2801,5.2819,5.2834,0,0,0,0,0,0,5.2372,5.2387,5.2367,5.2458,5.248,5.2493,5.2541,5.2516,5.2549,5.254,5.2517,5.2522,5.2599,5.2606,5.2558,5.2694,5.2637,5.2648,5.2686,5.2704,5.2717,5.2713,5.2493,0,0,0,0,0,5.2398,5.2447,5.2456,5.2535,5.2548,5.2543,5.2568,5.2554,5.2575,5.2584,5.259,5.2611,5.2651,5.2678,5.2716,5.2808,5.281,5.2851,5.2865,5.2876,5.2886,5.2932,5.295,5.2761,5.2761,5.2761,0,0,5.2452,5.2466,5.2498,5.255,5.2565,5.2614,5.2551,5.2605,5.264,5.2592,5.266,5.2666,5.2687,5.277,5.2807,5.2778,5.2939,5.2887,5.2896,5.2899,5.2943,5.2961,5.2977,5.2767,5.2766,5.2765,0,0,5.2575,5.2592,5.2658,5.2676,5.2701,5.2697,5.2713,5.273,5.2732,5.2801,5.2765,5.2806,5.2876,5.2892,5.291,5.3038,5.3007,5.3051,5.3122,5.3169,5.3183,5.3196,5.324,5.3256,5.3061,5.3061,5.3061,0,5.2638,5.2711,5.2695,5.2752,5.2774,5.2735,5.28,5.2817,5.2853,5.2868,5.2837,5.2923,5.2935,5.302,5.3051,5.3068,5.3083,5.3048,5.3183,5.3196,5.3208,5.3248,5.3265,5.3066,5.3065,5.3065,5.3064,0,5.2786,5.2838,5.2888,5.2925,5.2953,5.3014,5.3005,5.3036,5.3019,5.3018,5.3087,5.31,5.3139,5.3158,5.3142,5.324,5.3221,5.3187,5.3129,5.3231,5.3269,5.3284,5.3073,5.3071,5.307,5.3069,0,0,5.2953,5.298,5.2998,5.3014,5.3039,5.3077,5.3135,5.3174,5.3199,5.3225,5.3272,5.3332,5.33,5.332,5.3306,5.3347,5.3444,5.3306,5.3307,5.3329,5.3549,5.3573,5.3592,5.3425,5.3428,5.343,5.3547,0,5.3073,5.3176,5.3163,5.326,5.3305,5.3268,5.3318,5.3338,5.3338,5.3375,5.3375,5.3417,5.3373,5.3385,5.3424,5.3424,5.3487,5.3416,5.3465,5.3467,5.3458,5.3612,5.3638,5.3747,5.3562,5.3564,5.3566,0,5.3227,5.326,5.3362,5.3378,5.3397,5.3443,5.3476,5.3513,5.3534,5.3531,5.3554,5.3531,5.3587,5.353,5.3605,5.3557,5.3576,5.3579,5.3583,5.3585,5.3521,5.3615,5.3782,5.3798,5.359,5.3588,5.3586,0,5.3335,5.3405,5.3474,5.3489,5.351,5.3543,5.3553,5.357,5.3594,5.3623,5.3638,5.3673,5.3691,5.3718,5.3705,5.3665,5.3782,5.3724,5.3778,5.3779,5.3802,5.3801,5.3972,5.382,5.382,5.3819,5.3819,0,5.347,5.3533,5.3522,5.3565,5.3634,5.3618,5.3685,5.3691,5.3707,5.3748,5.3718,5.3757,5.3738,5.3775,5.3766,5.3828,5.3837,5.3834,5.3831,5.3836,5.3836,5.3846,5.3837,5.3824,5.3823,5.3822,5.3821,0,5.3601,5.3597,5.3669,5.3684,5.3689,5.3739,5.375,5.3789,5.3788,5.384,5.3851,5.3848,5.389,5.388,5.3926,5.3919,5.3997,5.3985,5.399,5.3986,5.404,5.4034,5.4222,5.4245,5.408,5.4082,5.4083,0,5.3685,5.3733,5.3753,5.3779,5.3792,5.3835,5.3859,5.3845,5.3871,5.3897,5.3932,5.3972,5.4002,5.4071,5.4071,5.4105,5.4092,5.4156,5.4097,5.41,5.409,5.4086,5.409,5.4166,5.4168,5.417,5.4171,0,5.3835,5.3831,5.3868,5.3904,5.3934,5.3962,5.3986,5.4009,5.3996,5.4026,5.407,5.4094,5.414,5.4179,5.4211,5.4219,5.4192,5.419,5.4204,5.4208,5.4208,5.4206,5.4019,5.4185,5.4184,5.4183,5.4182,5.4181,5.3944,5.3984,5.4004,5.4046,5.4063,5.4086,5.4123,5.4126,5.4162,5.42,5.4189,5.4237,5.4255,5.4295,5.4307,5.4343,5.4319,5.434,5.4345,5.4349,5.4355,5.4205,5.4349,5.4349,5.4348,5.4348,5.4348,0,5.409,5.4101,5.414,5.4175,5.4208,5.4182,5.4207,5.4235,5.4279,5.4298,5.4329,5.4378,5.4415,5.4419,5.4454,5.4482,5.447,5.4491,5.4487,5.4489,5.4376,5.4359,5.45,5.45,5.45,5.45,5.45,5.45,5.417,5.4235,5.4233,5.4306,5.4316,5.4364,5.4381,5.4401,5.4416,5.4472,5.4504,5.4507,5.4519,5.4554,5.4586,5.4586,5.4599,5.4624,5.4619,5.4513,5.4497,5.4483,5.4467,5.4628,5.4628,5.4729,5.473,5.4731]}]]